Overview Statistics Trail Chart Weather Telemetry Raw packets
 

This is the latest recevied weather packets stored in our database for station/object IT9DBI-3. If no packets are shown the sender has not sent any weather packets the latest 10 day(s).

<< 1 2 3 4 5 6 >>
Time Temp. Humidity Pressure Rain* Wind** Luminosity Snow
1788552984 30° C 61% 1017.8 hPa - - - -
1788551783 29.44° C 63% 1018.1 hPa - - - -
1788550582 187.78° C 64% 1012.6 hPa - - - -
1788549380 187.78° C 63% - - - - -
1788548179 30° C 60% 1017.8 hPa - - - -
1788546978 30.56° C 58% 1017.5 hPa - - - -
1788545777 31.11° C 56% 1017.1 hPa - - - -
1788544575 31.11° C 55% 1016.9 hPa - - - -
1788543374 31.67° C 54% 1016.7 hPa - - - -
1788542173 33.89° C 49% 1016.5 hPa - - - -
1788540972 35.56° C 43% 1016.3 hPa - - - -
1788539778 36.67° C 41% 1016.2 hPa - - - -
1788538569 37.22° C 41% 1016.1 hPa - - - -
1788537368 37.22° C 41% 1016.1 hPa - - - -
1788536166 37.22° C 40% 1016.1 hPa - - - -
1788534965 37.78° C 39% 1016 hPa - - - -
1788533764 36.67° C 40% 1016.1 hPa - - - -
1788532562 36.67° C 40% 1015.9 hPa - - - -
1788531361 37.22° C 36% 1015.9 hPa - - - -
1788530160 36.11° C 38% 1015.9 hPa - - - -
1788528959 36.67° C 39% 1016 hPa - - - -
1788527757 35.56° C 41% 1016.2 hPa - - - -
1788526556 36.67° C 42% 1016.2 hPa - - - -
1788525354 36.11° C 41% 1016.3 hPa - - - -
1788524153 36.11° C 42% 1016.4 hPa - - - -

* Rain since midnight (hover to see other rain measurements)
** Current wind speed in m/s (hover to see current wind gust speed)